Year,Month,Day,Hour,Minute,Value (Times are PST for barometer in hPa)
2018,03,30,00,00,1021.09
2018,03,30,00,01,1021.07
2018,03,30,00,02,1021.09
2018,03,30,00,03,1021.07
2018,03,30,00,04,1021.08
2018,03,30,00,05,1021.02
2018,03,30,00,06,1021.01
2018,03,30,00,07,1021.02
2018,03,30,00,08,1020.99
2018,03,30,00,09,1020.97
2018,03,30,00,10,1021.00
2018,03,30,00,11,1020.99
2018,03,30,00,12,1020.97
2018,03,30,00,13,1021.00
2018,03,30,00,14,1021.00
2018,03,30,00,15,1020.99
2018,03,30,00,16,1020.97
2018,03,30,00,17,1020.99
2018,03,30,00,18,1020.97
2018,03,30,00,19,1020.98
2018,03,30,00,20,1020.92
2018,03,30,00,21,1020.89
2018,03,30,00,22,1020.88
2018,03,30,00,23,1020.86
2018,03,30,00,24,1020.86
2018,03,30,00,25,1020.84
2018,03,30,00,26,1020.79
2018,03,30,00,27,1020.79
2018,03,30,00,28,1020.80
2018,03,30,00,29,1020.82
2018,03,30,00,30,1020.78
2018,03,30,00,31,1020.77
2018,03,30,00,32,1020.78
2018,03,30,00,33,1020.74
2018,03,30,00,34,1020.68
2018,03,30,00,35,1020.66
2018,03,30,00,36,1020.66
2018,03,30,00,37,1020.66
2018,03,30,00,38,1020.66
2018,03,30,00,39,1020.66
2018,03,30,00,40,1020.65
2018,03,30,00,41,1020.61
2018,03,30,00,42,1020.60
2018,03,30,00,43,1020.61
2018,03,30,00,44,1020.59
2018,03,30,00,45,1020.58
2018,03,30,00,46,1020.56
2018,03,30,00,47,1020.57
2018,03,30,00,48,1020.56
2018,03,30,00,49,1020.49
2018,03,30,00,50,1020.47
2018,03,30,00,51,1020.45
2018,03,30,00,52,1020.47
2018,03,30,00,53,1020.47
2018,03,30,00,54,1020.45
2018,03,30,00,55,1020.45
2018,03,30,00,56,1020.44
2018,03,30,00,57,1020.42
2018,03,30,00,58,1020.41
2018,03,30,00,59,1020.40
2018,03,30,01,00,1020.39
2018,03,30,01,01,1020.38
2018,03,30,01,02,1020.43
2018,03,30,01,03,1020.43
2018,03,30,01,04,1020.39
2018,03,30,01,05,1020.39
2018,03,30,01,06,1020.37
2018,03,30,01,07,1020.31
2018,03,30,01,08,1020.31
2018,03,30,01,09,1020.39
2018,03,30,01,10,1020.37
2018,03,30,01,11,1020.32
2018,03,30,01,12,1020.29
2018,03,30,01,13,1020.32
2018,03,30,01,14,1020.32
2018,03,30,01,15,1020.29
2018,03,30,01,16,1020.27
2018,03,30,01,17,1020.27
2018,03,30,01,18,1020.27
2018,03,30,01,19,1020.25
2018,03,30,01,20,1020.27
2018,03,30,01,21,1020.29
2018,03,30,01,22,1020.27
2018,03,30,01,23,1020.25
2018,03,30,01,24,1020.22
2018,03,30,01,25,1020.18
2018,03,30,01,26,1020.22
2018,03,30,01,27,1020.18
2018,03,30,01,28,1020.18
2018,03,30,01,29,1020.18
2018,03,30,01,30,1020.18
2018,03,30,01,31,1020.18
2018,03,30,01,32,1020.22
2018,03,30,01,33,1020.18
2018,03,30,01,34,1020.18
2018,03,30,01,35,1020.18
2018,03,30,01,36,1020.12
2018,03,30,01,37,1020.15
2018,03,30,01,38,1020.08
2018,03,30,01,39,1020.01
2018,03,30,01,40,1019.98
2018,03,30,01,41,1019.98
2018,03,30,01,42,1019.98
2018,03,30,01,43,1019.98
2018,03,30,01,44,1019.98
2018,03,30,01,45,1020.01
2018,03,30,01,46,1020.01
2018,03,30,01,47,1020.01
2018,03,30,01,48,1020.00
2018,03,30,01,49,1019.95
2018,03,30,01,50,1019.95
2018,03,30,01,51,1019.91
2018,03,30,01,52,1019.92
2018,03,30,01,53,1019.98
2018,03,30,01,54,1019.95
2018,03,30,01,55,1019.91
2018,03,30,01,56,1019.88
2018,03,30,01,57,1019.85
2018,03,30,01,58,1019.85
2018,03,30,01,59,1019.84
2018,03,30,02,00,1019.78
2018,03,30,02,01,1019.74
2018,03,30,02,02,1019.78
2018,03,30,02,03,1019.78
2018,03,30,02,04,1019.74
2018,03,30,02,05,1019.74
2018,03,30,02,06,1019.71
2018,03,30,02,07,1019.73
2018,03,30,02,08,1019.69
2018,03,30,02,09,1019.74
2018,03,30,02,10,1019.73
2018,03,30,02,11,1019.64
2018,03,30,02,12,1019.64
2018,03,30,02,13,1019.61
2018,03,30,02,14,1019.64
2018,03,30,02,15,1019.64
2018,03,30,02,16,1019.64
2018,03,30,02,17,1019.64
2018,03,30,02,18,1019.61
2018,03,30,02,19,1019.65
2018,03,30,02,20,1019.68
2018,03,30,02,21,1019.64
2018,03,30,02,22,1019.61
2018,03,30,02,23,1019.62
2018,03,30,02,24,1019.55
2018,03,30,02,25,1019.58
2018,03,30,02,26,1019.61
2018,03,30,02,27,1019.62
2018,03,30,02,28,1019.66
2018,03,30,02,29,1019.56
2018,03,30,02,30,1019.52
2018,03,30,02,31,1019.55
2018,03,30,02,32,1019.56
2018,03,30,02,33,1019.52
2018,03,30,02,34,1019.53
2018,03,30,02,35,1019.53
2018,03,30,02,36,1019.60
2018,03,30,02,37,1019.54
2018,03,30,02,38,1019.55
2018,03,30,02,39,1019.60
2018,03,30,02,40,1019.55
2018,03,30,02,41,1019.58
2018,03,30,02,42,1019.60
2018,03,30,02,43,1019.55
2018,03,30,02,44,1019.60
2018,03,30,02,45,1019.56
2018,03,30,02,46,1019.60
2018,03,30,02,47,1019.58
2018,03,30,02,48,1019.60
2018,03,30,02,49,1019.56
2018,03,30,02,50,1019.56
2018,03,30,02,51,1019.61
2018,03,30,02,52,1019.62
2018,03,30,02,53,1019.64
2018,03,30,02,54,1019.64
2018,03,30,02,55,1019.64
2018,03,30,02,56,1019.63
2018,03,30,02,57,1019.62
2018,03,30,02,58,1019.63
2018,03,30,02,59,1019.59
2018,03,30,03,00,1019.54
2018,03,30,03,01,1019.53
2018,03,30,03,02,1019.51
2018,03,30,03,03,1019.52
2018,03,30,03,04,1019.55
2018,03,30,03,05,1019.56
2018,03,30,03,06,1019.55
2018,03,30,03,07,1019.56
2018,03,30,03,08,1019.51
2018,03,30,03,09,1019.47
2018,03,30,03,10,1019.54
2018,03,30,03,11,1019.56
2018,03,30,03,12,1019.61
2018,03,30,03,13,1019.59
2018,03,30,03,14,1019.54
2018,03,30,03,15,1019.53
2018,03,30,03,16,1019.50
2018,03,30,03,17,1019.49
2018,03,30,03,18,1019.56
2018,03,30,03,19,1019.60
2018,03,30,03,20,1019.55
2018,03,30,03,21,1019.50
2018,03,30,03,22,1019.47
2018,03,30,03,23,1019.48
2018,03,30,03,24,1019.48
2018,03,30,03,25,1019.42
2018,03,30,03,26,1019.47
2018,03,30,03,27,1019.46
2018,03,30,03,28,1019.44
2018,03,30,03,29,1019.43
2018,03,30,03,30,1019.40
2018,03,30,03,31,1019.40
2018,03,30,03,32,1019.40
2018,03,30,03,33,1019.40
2018,03,30,03,34,1019.40
2018,03,30,03,35,1019.41
2018,03,30,03,36,1019.43
2018,03,30,03,37,1019.39
2018,03,30,03,38,1019.38
2018,03,30,03,39,1019.41
2018,03,30,03,40,1019.46
2018,03,30,03,41,1019.50
2018,03,30,03,42,1019.46
2018,03,30,03,43,1019.44
2018,03,30,03,44,1019.43
2018,03,30,03,45,1019.38
2018,03,30,03,46,1019.35
2018,03,30,03,47,1019.40
2018,03,30,03,48,1019.45
2018,03,30,03,49,1019.46
2018,03,30,03,50,1019.41
2018,03,30,03,51,1019.38
2018,03,30,03,52,1019.40
2018,03,30,03,53,1019.42
2018,03,30,03,54,1019.43
2018,03,30,03,55,1019.38
2018,03,30,03,56,1019.35
2018,03,30,03,57,1019.38
2018,03,30,03,58,1019.42
2018,03,30,03,59,1019.39
2018,03,30,04,00,1019.31
2018,03,30,04,01,1019.34
2018,03,30,04,02,1019.35
2018,03,30,04,03,1019.34
2018,03,30,04,04,1019.32
2018,03,30,04,08,1019.34
2018,03,30,04,09,1019.28
2018,03,30,04,10,1019.27
2018,03,30,04,11,1019.24
2018,03,30,04,12,1019.20
2018,03,30,04,13,1019.20
2018,03,30,04,14,1019.17
2018,03,30,04,15,1019.11
2018,03,30,04,16,1019.10
2018,03,30,04,17,1019.07
2018,03,30,04,18,1019.07
2018,03,30,04,19,1019.01
2018,03,30,04,20,1019.09
2018,03,30,04,21,1018.95
2018,03,30,04,22,1019.06
2018,03,30,04,23,1019.03
2018,03,30,04,24,1019.07
2018,03,30,04,25,1019.22
2018,03,30,04,26,1019.01
2018,03,30,04,27,1019.06
2018,03,30,04,28,1019.03
2018,03,30,04,29,1019.10
2018,03,30,04,30,1019.10
2018,03,30,04,31,1019.04
2018,03,30,04,32,1019.10
2018,03,30,04,33,1019.07
2018,03,30,04,34,1019.23
2018,03,30,04,35,1019.20
2018,03,30,04,36,1019.24
2018,03,30,04,37,1019.08
2018,03,30,04,38,1019.17
2018,03,30,04,39,1019.13
2018,03,30,04,40,1019.23
2018,03,30,04,41,1019.17
2018,03,30,04,42,1019.17
2018,03,30,04,43,1019.07
2018,03,30,04,44,1019.17
2018,03,30,04,45,1019.20
2018,03,30,04,46,1019.17
2018,03,30,04,47,1019.17
2018,03,30,04,48,1019.13
2018,03,30,04,49,1019.20
2018,03,30,04,50,1019.07
2018,03,30,04,51,1019.10
2018,03,30,04,52,1019.20
2018,03,30,04,53,1019.24
2018,03,30,04,54,1019.20
2018,03,30,04,55,1019.20
2018,03,30,04,56,1019.13
2018,03,30,04,57,1019.10
2018,03,30,04,58,1019.20
2018,03,30,04,59,1019.13
2018,03,30,05,00,1019.20
2018,03,30,05,01,1019.24
2018,03,30,05,02,1019.27
2018,03,30,05,03,1019.20
2018,03,30,05,04,1019.17
2018,03,30,05,05,1019.24
2018,03,30,05,06,1019.30
2018,03,30,05,07,1019.24
2018,03,30,05,08,1019.23
2018,03,30,05,09,1019.14
2018,03,30,05,10,1019.27
2018,03,30,05,11,1019.24
2018,03,30,05,12,1019.24
2018,03,30,05,13,1019.27
2018,03,30,05,14,1019.20
2018,03,30,05,15,1019.24
2018,03,30,05,16,1019.27
2018,03,30,05,17,1019.27
2018,03,30,05,18,1019.30
2018,03,30,05,19,1019.34
2018,03,30,05,20,1019.27
2018,03,30,05,21,1019.35
2018,03,30,05,22,1019.40
2018,03,30,05,23,1019.40
2018,03,30,05,24,1019.40
2018,03,30,05,25,1019.38
2018,03,30,05,26,1019.44
2018,03,30,05,27,1019.40
2018,03,30,05,28,1019.34
2018,03,30,05,29,1019.37
2018,03,30,05,30,1019.37
2018,03,30,05,31,1019.37
2018,03,30,05,32,1019.40
2018,03,30,05,33,1019.36
2018,03,30,05,34,1019.30
2018,03,30,05,35,1019.34
2018,03,30,05,36,1019.34
2018,03,30,05,37,1019.30
2018,03,30,05,38,1019.30
2018,03,30,05,39,1019.30
2018,03,30,05,40,1019.30
2018,03,30,05,41,1019.30
2018,03,30,05,42,1019.29
2018,03,30,05,43,1019.42
2018,03,30,05,44,1019.31
2018,03,30,05,45,1019.37
2018,03,30,05,46,1019.37
2018,03,30,05,47,1019.41
2018,03,30,05,48,1019.44
2018,03,30,05,49,1019.40
2018,03,30,05,50,1019.40
2018,03,30,05,51,1019.37
2018,03,30,05,52,1019.37
2018,03,30,05,53,1019.34
2018,03,30,05,54,1019.38
2018,03,30,05,55,1019.44
2018,03,30,05,56,1019.43
2018,03,30,05,57,1019.41
2018,03,30,05,58,1019.45
2018,03,30,05,59,1019.50
2018,03,30,06,00,1019.44
2018,03,30,06,01,1019.45
2018,03,30,06,02,1019.51
2018,03,30,06,03,1019.49
2018,03,30,06,04,1019.41
2018,03,30,06,05,1019.43
2018,03,30,06,06,1019.42
2018,03,30,06,07,1019.50
2018,03,30,06,08,1019.44
2018,03,30,06,09,1019.44
2018,03,30,06,10,1019.45
2018,03,30,06,11,1019.50
2018,03,30,06,12,1019.43
2018,03,30,06,13,1019.41
2018,03,30,06,14,1019.44
2018,03,30,06,15,1019.44
2018,03,30,06,16,1019.45
2018,03,30,06,17,1019.47
2018,03,30,06,18,1019.47
2018,03,30,06,19,1019.48
2018,03,30,06,20,1019.50
2018,03,30,06,21,1019.46
2018,03,30,06,22,1019.43
2018,03,30,06,23,1019.40
2018,03,30,06,24,1019.40
2018,03,30,06,25,1019.39
2018,03,30,06,26,1019.33
2018,03,30,06,27,1019.27
2018,03,30,06,28,1019.26
2018,03,30,06,29,1019.25
2018,03,30,06,30,1019.26
2018,03,30,06,31,1019.24
2018,03,30,06,32,1019.25
2018,03,30,06,33,1019.26
2018,03,30,06,34,1019.24
2018,03,30,06,35,1019.25
2018,03,30,06,36,1019.29
2018,03,30,06,37,1019.26
2018,03,30,06,38,1019.34
2018,03,30,06,39,1019.33
2018,03,30,06,40,1019.28
2018,03,30,06,41,1019.26
2018,03,30,06,42,1019.30
2018,03,30,06,43,1019.28
2018,03,30,06,44,1019.24
2018,03,30,06,45,1019.24
2018,03,30,06,46,1019.24
2018,03,30,06,47,1019.24
2018,03,30,06,48,1019.25
2018,03,30,06,49,1019.26
2018,03,30,06,50,1019.24
2018,03,30,06,51,1019.24
2018,03,30,06,52,1019.24
2018,03,30,06,53,1019.25
2018,03,30,06,54,1019.28
2018,03,30,06,55,1019.28
2018,03,30,06,56,1019.27
2018,03,30,06,57,1019.34
2018,03,30,06,58,1019.34
2018,03,30,06,59,1019.33
2018,03,30,07,00,1019.31
2018,03,30,07,01,1019.34
2018,03,30,07,02,1019.35
2018,03,30,07,03,1019.34
2018,03,30,07,04,1019.27
2018,03,30,07,05,1019.28
2018,03,30,07,06,1019.29
2018,03,30,07,07,1019.27
2018,03,30,07,08,1019.29
2018,03,30,07,09,1019.34
2018,03,30,07,10,1019.35
2018,03,30,07,11,1019.36
2018,03,30,07,12,1019.32
2018,03,30,07,13,1019.30
2018,03,30,07,14,1019.34
2018,03,30,07,15,1019.34
2018,03,30,07,16,1019.36
2018,03,30,07,17,1019.39
2018,03,30,07,18,1019.35
2018,03,30,07,19,1019.32
2018,03,30,07,20,1019.36
2018,03,30,07,21,1019.34
2018,03,30,07,22,1019.33
2018,03,30,07,23,1019.32
2018,03,30,07,24,1019.37
2018,03,30,07,25,1019.37
2018,03,30,07,26,1019.36
2018,03,30,07,27,1019.34
2018,03,30,07,28,1019.31
2018,03,30,07,29,1019.30
2018,03,30,07,30,1019.32
2018,03,30,07,31,1019.29
2018,03,30,07,32,1019.28
2018,03,30,07,33,1019.30
2018,03,30,07,34,1019.30
2018,03,30,07,35,1019.30
2018,03,30,07,36,1019.30
2018,03,30,07,37,1019.30
2018,03,30,07,38,1019.32
2018,03,30,07,39,1019.33
2018,03,30,07,40,1019.33
2018,03,30,07,41,1019.36
2018,03,30,07,42,1019.34
2018,03,30,07,43,1019.35
2018,03,30,07,44,1019.36
2018,03,30,07,45,1019.35
2018,03,30,07,46,1019.34
2018,03,30,07,47,1019.33
2018,03,30,07,48,1019.38
2018,03,30,07,49,1019.40
2018,03,30,07,50,1019.39
2018,03,30,07,51,1019.34
2018,03,30,07,52,1019.32
2018,03,30,07,53,1019.35
2018,03,30,07,54,1019.36
2018,03,30,07,55,1019.34
2018,03,30,07,56,1019.35
2018,03,30,07,57,1019.37
2018,03,30,07,58,1019.34
2018,03,30,07,59,1019.30
2018,03,30,08,00,1019.29
2018,03,30,08,01,1019.34
2018,03,30,08,02,1019.40
2018,03,30,08,03,1019.34
2018,03,30,08,04,1019.34
2018,03,30,08,05,1019.34
2018,03,30,08,06,1019.34
2018,03,30,08,07,1019.35
2018,03,30,08,08,1019.37
2018,03,30,08,09,1019.36
2018,03,30,08,10,1019.37
2018,03,30,08,11,1019.39
2018,03,30,08,12,1019.42
2018,03,30,08,13,1019.47
2018,03,30,08,14,1019.47
2018,03,30,08,15,1019.49
2018,03,30,08,16,1019.49
2018,03,30,08,17,1019.51
2018,03,30,08,18,1019.53
2018,03,30,08,19,1019.53
2018,03,30,08,20,1019.54
2018,03,30,08,21,1019.54
2018,03,30,08,22,1019.49
2018,03,30,08,23,1019.47
2018,03,30,08,24,1019.54
2018,03,30,08,25,1019.54
2018,03,30,08,26,1019.54
2018,03,30,08,27,1019.57
2018,03,30,08,28,1019.55
2018,03,30,08,29,1019.53
2018,03,30,08,30,1019.54
2018,03,30,08,31,1019.55
2018,03,30,08,32,1019.58
2018,03,30,08,33,1019.55
2018,03,30,08,34,1019.49
2018,03,30,08,35,1019.43
2018,03,30,08,36,1019.42
2018,03,30,08,37,1019.44
2018,03,30,08,38,1019.42
2018,03,30,08,39,1019.37
2018,03,30,08,40,1019.37
2018,03,30,08,41,1019.35
2018,03,30,08,42,1019.32
2018,03,30,08,43,1019.37
2018,03,30,08,44,1019.40
2018,03,30,08,45,1019.42
2018,03,30,08,46,1019.42
2018,03,30,08,47,1019.42
2018,03,30,08,48,1019.44
2018,03,30,08,49,1019.44
2018,03,30,08,50,1019.46
2018,03,30,08,51,1019.49
2018,03,30,08,52,1019.51
2018,03,30,08,53,1019.54
2018,03,30,08,54,1019.54
2018,03,30,08,55,1019.49
2018,03,30,08,56,1019.53
2018,03,30,08,57,1019.54
2018,03,30,08,58,1019.57
2018,03,30,08,59,1019.61
2018,03,30,09,00,1019.59
2018,03,30,09,01,1019.63
2018,03,30,09,02,1019.68
2018,03,30,09,03,1019.70
2018,03,30,09,04,1019.67
2018,03,30,09,05,1019.71
2018,03,30,09,06,1019.70
2018,03,30,09,07,1019.70
2018,03,30,09,08,1019.69
2018,03,30,09,09,1019.74
2018,03,30,09,10,1019.76
2018,03,30,09,11,1019.70
2018,03,30,09,12,1019.72
2018,03,30,09,13,1019.76
2018,03,30,09,14,1019.84
2018,03,30,09,15,1019.88
2018,03,30,09,16,1019.88
2018,03,30,09,17,1019.84
2018,03,30,09,18,1019.86
2018,03,30,09,19,1019.88
2018,03,30,09,20,1019.84
2018,03,30,09,21,1019.79
2018,03,30,09,22,1019.80
2018,03,30,09,23,1019.81
2018,03,30,09,24,1019.84
2018,03,30,09,25,1019.85
2018,03,30,09,26,1019.87
2018,03,30,09,27,1019.90
2018,03,30,09,28,1019.87
2018,03,30,09,29,1019.89
2018,03,30,09,30,1019.84
2018,03,30,09,31,1019.84
2018,03,30,09,32,1019.87
2018,03,30,09,33,1019.88
2018,03,30,09,34,1019.86
2018,03,30,09,35,1019.87
2018,03,30,09,36,1019.93
2018,03,30,09,37,1019.88
2018,03,30,09,38,1019.89
2018,03,30,09,39,1019.91
2018,03,30,09,40,1019.96
2018,03,30,09,41,1019.96
2018,03,30,09,42,1019.95
2018,03,30,09,43,1019.95
2018,03,30,09,44,1019.95
2018,03,30,09,45,1019.88
2018,03,30,09,46,1019.89
2018,03,30,09,47,1019.89
2018,03,30,09,48,1019.90
2018,03,30,09,49,1019.91
2018,03,30,09,50,1019.91
2018,03,30,09,51,1019.87
2018,03,30,09,52,1019.92
2018,03,30,09,53,1019.92
2018,03,30,09,54,1019.91
2018,03,30,09,55,1019.91
2018,03,30,09,56,1019.96
2018,03,30,09,57,1019.93
2018,03,30,09,58,1019.94
2018,03,30,09,59,1019.92
2018,03,30,10,00,1019.91
2018,03,30,10,01,1019.91
2018,03,30,10,02,1019.94
2018,03,30,10,03,1019.95
2018,03,30,10,04,1019.92
2018,03,30,10,05,1019.86
2018,03,30,10,06,1019.85
2018,03,30,10,07,1019.85
2018,03,30,10,08,1019.87
2018,03,30,10,09,1019.88
2018,03,30,10,10,1019.96
2018,03,30,10,11,1019.96
2018,03,30,10,12,1019.90
2018,03,30,10,13,1019.90
2018,03,30,10,14,1019.91
2018,03,30,10,15,1019.94
2018,03,30,10,16,1019.97
2018,03,30,10,17,1019.96
2018,03,30,10,18,1019.88
2018,03,30,10,19,1019.90
2018,03,30,10,20,1019.91
2018,03,30,10,21,1019.94
2018,03,30,10,22,1020.00
2018,03,30,10,23,1020.01
2018,03,30,10,24,1019.97
2018,03,30,10,25,1019.97
2018,03,30,10,26,1019.96
2018,03,30,10,27,1020.00
2018,03,30,10,28,1020.04
2018,03,30,10,29,1019.97
2018,03,30,10,30,1020.00
2018,03,30,10,31,1019.98
2018,03,30,10,32,1020.04
2018,03,30,10,33,1020.02
2018,03,30,10,34,1020.04
2018,03,30,10,35,1020.00
2018,03,30,10,36,1020.04
2018,03,30,10,37,1020.05
2018,03,30,10,38,1020.07
2018,03,30,10,39,1020.08
2018,03,30,10,40,1020.11
2018,03,30,10,41,1020.12
2018,03,30,10,42,1020.17
2018,03,30,10,43,1020.13
2018,03,30,10,44,1020.09
2018,03,30,10,45,1020.11
2018,03,30,10,46,1020.12
2018,03,30,10,47,1020.12
2018,03,30,10,48,1020.03
2018,03,30,10,49,1020.04
2018,03,30,10,50,1020.07
2018,03,30,10,51,1020.08
2018,03,30,10,52,1020.05
2018,03,30,10,53,1020.02
2018,03,30,10,54,1020.04
2018,03,30,10,55,1020.14
2018,03,30,10,56,1020.09
2018,03,30,10,57,1019.99
2018,03,30,10,58,1019.98
2018,03,30,10,59,1020.04
2018,03,30,11,00,1020.07
2018,03,30,11,01,1020.05
2018,03,30,11,02,1020.05
2018,03,30,11,03,1020.11
2018,03,30,11,04,1020.09
2018,03,30,11,05,1020.05
2018,03,30,11,06,1020.08
2018,03,30,11,07,1020.12
2018,03,30,11,08,1020.08
2018,03,30,11,09,1020.12
2018,03,30,11,10,1020.09
2018,03,30,11,11,1020.12
2018,03,30,11,12,1020.15
2018,03,30,11,13,1020.15
2018,03,30,11,14,1020.12
2018,03,30,11,15,1020.12
2018,03,30,11,16,1020.12
2018,03,30,11,17,1020.12
2018,03,30,11,18,1020.12
2018,03,30,11,19,1020.15
2018,03,30,11,20,1020.08
2018,03,30,11,21,1020.12
2018,03,30,11,22,1020.15
2018,03,30,11,23,1020.06
2018,03,30,11,24,1020.08
2018,03,30,11,25,1020.05
2018,03,30,11,26,1020.11
2018,03,30,11,27,1020.08
2018,03,30,11,28,1020.15
2018,03,30,11,29,1020.22
2018,03,30,11,30,1020.15
2018,03,30,11,31,1020.15
2018,03,30,11,32,1020.18
2018,03,30,11,33,1020.15
2018,03,30,11,34,1020.15
2018,03,30,11,35,1020.18
2018,03,30,11,36,1020.18
2018,03,30,11,37,1020.12
2018,03,30,11,38,1020.15
2018,03,30,11,39,1020.18
2018,03,30,11,40,1020.15
2018,03,30,11,41,1020.22
2018,03,30,11,42,1020.18
2018,03,30,11,43,1020.18
2018,03,30,11,44,1020.18
2018,03,30,11,45,1020.22
2018,03,30,11,46,1020.12
2018,03,30,11,47,1020.18
2018,03,30,11,48,1020.15
2018,03,30,11,49,1020.18
2018,03,30,11,50,1020.18
2018,03,30,11,51,1020.22
2018,03,30,11,52,1020.25
2018,03,30,11,53,1020.22
2018,03,30,11,54,1020.22
2018,03,30,11,55,1020.15
2018,03,30,11,56,1020.18
2018,03,30,11,57,1020.08
2018,03,30,11,58,1020.18
2018,03,30,11,59,1020.18
2018,03,30,12,00,1020.18
2018,03,30,12,01,1020.22
2018,03,30,12,02,1020.12
2018,03,30,12,03,1020.15
2018,03,30,12,04,1020.15
2018,03,30,12,05,1020.18
2018,03,30,12,06,1020.18
2018,03,30,12,07,1020.09
2018,03,30,12,08,1020.22
2018,03,30,12,09,1020.15
2018,03,30,12,10,1020.22
2018,03,30,12,11,1020.12
2018,03,30,12,12,1020.08
2018,03,30,12,13,1020.15
2018,03,30,12,14,1020.15
2018,03,30,12,15,1020.13
2018,03,30,12,16,1020.18
2018,03,30,12,17,1020.14
2018,03,30,12,18,1020.05
2018,03,30,12,19,1020.08
2018,03,30,12,20,1020.08
2018,03,30,12,21,1019.98
2018,03,30,12,22,1020.01
2018,03,30,12,23,1020.01
2018,03,30,12,24,1020.05
2018,03,30,12,25,1020.01
2018,03,30,12,26,1019.98
2018,03,30,12,27,1020.01
2018,03,30,12,28,1020.01
2018,03,30,12,29,1020.00
2018,03,30,12,30,1019.88
2018,03,30,12,31,1019.91
2018,03,30,12,32,1019.94
2018,03,30,12,33,1019.88
2018,03,30,12,34,1019.89
2018,03,30,12,35,1019.97
2018,03,30,12,36,1019.92
2018,03,30,12,37,1019.98
2018,03,30,12,38,1019.95
2018,03,30,12,39,1019.94
2018,03,30,12,40,1019.88
2018,03,30,12,41,1019.91
2018,03,30,12,42,1019.88
2018,03,30,12,43,1019.91
2018,03,30,12,44,1019.91
2018,03,30,12,45,1019.91
2018,03,30,12,46,1019.90
2018,03,30,12,47,1019.82
2018,03,30,12,48,1019.91
2018,03,30,12,49,1019.90
2018,03,30,12,50,1019.84
2018,03,30,12,51,1019.81
2018,03,30,12,52,1019.81
2018,03,30,12,53,1019.77
2018,03,30,12,54,1019.75
2018,03,30,12,55,1019.80
2018,03,30,12,56,1019.74
2018,03,30,12,57,1019.75
2018,03,30,12,58,1019.77
2018,03,30,12,59,1019.75
2018,03,30,13,00,1019.78
2018,03,30,13,01,1019.78
2018,03,30,13,02,1019.78
2018,03,30,13,03,1019.78
2018,03,30,13,04,1019.77
2018,03,30,13,05,1019.71
2018,03,30,13,06,1019.75
2018,03,30,13,07,1019.79
2018,03,30,13,08,1019.72
2018,03,30,13,09,1019.78
2018,03,30,13,10,1019.78
2018,03,30,13,11,1019.78
2018,03,30,13,12,1019.78
2018,03,30,13,13,1019.77
2018,03,30,13,14,1019.74
2018,03,30,13,15,1019.74
2018,03,30,13,16,1019.74
2018,03,30,13,17,1019.73
2018,03,30,13,18,1019.72
2018,03,30,13,19,1019.75
2018,03,30,13,20,1019.76
2018,03,30,13,21,1019.70
2018,03,30,13,22,1019.68
2018,03,30,13,23,1019.69
2018,03,30,13,24,1019.74
2018,03,30,13,25,1019.75
2018,03,30,13,26,1019.80
2018,03,30,13,27,1019.83
2018,03,30,13,28,1019.78
2018,03,30,13,29,1019.80
2018,03,30,13,30,1019.84
2018,03,30,13,31,1019.82
2018,03,30,13,32,1019.84
2018,03,30,13,33,1019.81
2018,03,30,13,34,1019.82
2018,03,30,13,35,1019.87
2018,03,30,13,36,1019.90
2018,03,30,13,37,1019.89
2018,03,30,13,38,1019.91
2018,03,30,13,39,1019.92
2018,03,30,13,40,1019.94
2018,03,30,13,41,1019.91
2018,03,30,13,42,1019.91
2018,03,30,13,43,1019.91
2018,03,30,13,44,1019.91
2018,03,30,13,45,1019.91
2018,03,30,13,46,1019.91
2018,03,30,13,47,1019.92
2018,03,30,13,48,1019.95
2018,03,30,13,49,1019.94
2018,03,30,13,50,1019.91
2018,03,30,13,51,1019.91
2018,03,30,13,52,1019.90
2018,03,30,13,53,1019.90
2018,03,30,13,54,1019.94
2018,03,30,13,55,1019.93
2018,03,30,13,56,1019.99
2018,03,30,13,57,1020.00
2018,03,30,13,58,1019.99
2018,03,30,13,59,1020.00
2018,03,30,14,00,1020.00
2018,03,30,14,01,1020.05
2018,03,30,14,02,1020.09
2018,03,30,14,03,1020.22
2018,03,30,14,04,1020.21
2018,03,30,14,05,1020.04
2018,03,30,14,06,1020.01
2018,03,30,14,07,1020.02
2018,03,30,14,08,1020.05
2018,03,30,14,09,1020.07
2018,03,30,14,10,1020.10
2018,03,30,14,11,1020.06
2018,03,30,14,12,1020.10
2018,03,30,14,13,1020.12
2018,03,30,14,14,1020.11
2018,03,30,14,15,1020.09
2018,03,30,14,16,1020.12
2018,03,30,14,17,1020.13
2018,03,30,14,18,1020.15
2018,03,30,14,19,1020.16
2018,03,30,14,20,1020.16
2018,03,30,14,21,1020.14
2018,03,30,14,22,1020.19
2018,03,30,14,23,1020.22
2018,03,30,14,24,1020.21
2018,03,30,14,25,1020.18
2018,03,30,14,26,1020.18
2018,03,30,14,27,1020.18
2018,03,30,14,28,1020.17
2018,03,30,14,29,1020.16
2018,03,30,14,30,1020.19
2018,03,30,14,31,1020.23
2018,03,30,14,32,1020.24
2018,03,30,14,33,1020.25
2018,03,30,14,34,1020.26
2018,03,30,14,35,1020.22
2018,03,30,14,36,1020.22
2018,03,30,14,37,1020.23
2018,03,30,14,38,1020.24
2018,03,30,14,39,1020.20
2018,03,30,14,40,1020.21
2018,03,30,14,41,1020.27
2018,03,30,14,42,1020.29
2018,03,30,14,43,1020.29
2018,03,30,14,44,1020.30
2018,03,30,14,45,1020.32
2018,03,30,14,46,1020.32
2018,03,30,14,47,1020.32
2018,03,30,14,48,1020.32
2018,03,30,14,49,1020.33
2018,03,30,14,50,1020.35
2018,03,30,14,51,1020.34
2018,03,30,14,52,1020.33
2018,03,30,14,53,1020.34
2018,03,30,14,54,1020.35
2018,03,30,14,55,1020.39
2018,03,30,14,56,1020.40
2018,03,30,14,57,1020.42
2018,03,30,14,58,1020.42
2018,03,30,14,59,1020.42
2018,03,30,15,00,1020.42
2018,03,30,15,01,1020.42
2018,03,30,15,02,1020.43
2018,03,30,15,03,1020.44
2018,03,30,15,04,1020.42
2018,03,30,15,05,1020.43
2018,03,30,15,06,1020.45
2018,03,30,15,07,1020.48
2018,03,30,15,08,1020.51
2018,03,30,15,09,1020.49
2018,03,30,15,10,1020.51
2018,03,30,15,11,1020.52
2018,03,30,15,12,1020.51
2018,03,30,15,13,1020.50
2018,03,30,15,14,1020.54
2018,03,30,15,15,1020.56
2018,03,30,15,16,1020.59
2018,03,30,15,17,1020.59
2018,03,30,15,18,1020.58
2018,03,30,15,19,1020.59
2018,03,30,15,20,1020.59
2018,03,30,15,21,1020.57
2018,03,30,15,22,1020.54
2018,03,30,15,23,1020.54
2018,03,30,15,24,1020.59
2018,03,30,15,25,1020.59
2018,03,30,15,26,1020.56
2018,03,30,15,27,1020.56
2018,03,30,15,28,1020.54
2018,03,30,15,29,1020.54
2018,03,30,15,30,1020.56
2018,03,30,15,31,1020.56
2018,03,30,15,32,1020.56
2018,03,30,15,33,1020.56
2018,03,30,15,34,1020.54
2018,03,30,15,35,1020.52
2018,03,30,15,36,1020.54
2018,03,30,15,37,1020.56
2018,03,30,15,38,1020.52
2018,03,30,15,39,1020.51
2018,03,30,15,40,1020.50
2018,03,30,15,41,1020.51
2018,03,30,15,42,1020.54
2018,03,30,15,43,1020.56
2018,03,30,15,44,1020.54
2018,03,30,15,45,1020.54
2018,03,30,15,46,1020.58
2018,03,30,15,47,1020.58
2018,03,30,15,48,1020.56
2018,03,30,15,49,1020.58
2018,03,30,15,50,1020.57
2018,03,30,15,51,1020.58
2018,03,30,15,52,1020.59
2018,03,30,15,53,1020.59
2018,03,30,15,54,1020.59
2018,03,30,15,55,1020.55
2018,03,30,15,56,1020.54
2018,03,30,15,57,1020.58
2018,03,30,15,58,1020.53
2018,03,30,15,59,1020.49